Regional Weather Roundup
Issued by NWS

Home | Current Version | Previous Version | Text Only | Print | Product List | Glossary Off
Versions: 1 2 3 4 5 6 7 8 9 10 11 12 13 14 15 16 17 18 19 20 21 22 23 24 25 26 27 28 29 30 31 32 33 34 35 36 37 38 39 40 41 42 43 44 45 46 47 48 49 50

000
ASUS43 KBIS 111102
RWRND

NORTH DAKOTA REGIONAL WEATHER ROUNDUP
NATIONAL WEATHER SERVICE BISMARCK ND
500 AM CST MON DEC 11 2017

NOTE: "FAIR" INDICATES FEW OR NO CLOUDS BELOW 12,000 FEET WITH NO
SIGNIFICANT WEATHER AND/OR OBSTRUCTIONS TO VISIBILITY.


NDZ001>003-009>011-017-111200-
NORTHWEST NORTH DAKOTA

CITY           SKY/WX    TMP DP  RH WIND       PRES   REMARKS
WILLISTON      CLOUDY    37  30  75 N29G44    30.12R
MINOT          CLOUDY    38  33  82 NW23G35   29.96R
MINOT AFB      CLOUDY    38  32  81 NW24      29.95R
$$

NDZ018>021-031>035-040>046-111200-
SOUTHWEST NORTH DAKOTA

CITY           SKY/WX    TMP DP  RH WIND       PRES   REMARKS
BISMARCK       CLOUDY    44  33  65 NW21G37   29.96R
DICKINSON      CLOUDY    37  30  75 NW29G40   30.06R
GARRISON         N/A     38  31  76 NW31G38   29.97R
HETTINGER ARPT CLOUDY    38  26  62 NW31G41   30.08R
$$

NDZ004>008-012>016-024-026-027-054-111200-
NORTHEAST NORTH DAKOTA

CITY           SKY/WX    TMP DP  RH WIND       PRES   REMARKS
GRAND FORKS    MIX PCPN  37  33  85 N18       29.74R
GRND FRKS AFB  CLOUDY    37  32  82 N24G36    29.75R
DEVILS LAKE    CLOUDY    35  32  88 N23G33    29.83R
$$

NDZ022-023-025-028>030-036>039-047>053-111200-
SOUTHEAST NORTH DAKOTA

CITY           SKY/WX    TMP DP  RH WIND       PRES   REMARKS
FARGO          CLOUDY    37  33  85 NW17      29.73R
JAMESTOWN      CLOUDY    37  34  89 NW26G41   29.80R
$$




USA.gov is the U.S. government's official web portal to all federal, state and local government web resources and services.